2023/12/18 00:00:00,17.4,-4.6
2023/12/18 00:10:00,17.7,-4.3
2023/12/18 00:20:00,17.9,-4.4
2023/12/18 00:30:00,18.2,-4.5
2023/12/18 00:40:00,18.2,-4.3
2023/12/18 00:50:00,18.6,-4.3
2023/12/18 01:00:00,18.9,-4.3
2023/12/18 01:10:00,18.9,-4.5
2023/12/18 01:20:00,19.0,-4.4
2023/12/18 01:30:00,19.5,-4.3
2023/12/18 01:40:00,19.4,-4.3
2023/12/18 01:50:00,19.6,-4.3
2023/12/18 02:00:00,20.0,-4.3
2023/12/18 02:10:00,20.1,-4.2
2023/12/18 02:20:00,19.9,-4.3
2023/12/18 02:30:00,19.7,-4.1
2023/12/18 02:40:00,19.6,-4.3
2023/12/18 02:50:00,19.5,-4.1
2023/12/18 03:00:00,19.4,-4.3
2023/12/18 03:10:00,19.9,-4.1
2023/12/18 03:20:00,20.0,-4.1
2023/12/18 03:30:00,19.8,-4.3
2023/12/18 03:40:00,19.7,-4.1
2023/12/18 03:50:00,20.0,-4.1
2023/12/18 04:00:00,20.2,-4.0
2023/12/18 04:10:00,20.3,-4.0
2023/12/18 04:20:00,20.6,-4.1
2023/12/18 04:30:00,20.9,-4.1
2023/12/18 04:40:00,20.8,-4.0
2023/12/18 04:50:00,20.6,-4.0
2023/12/18 05:00:00,20.5,-4.0
2023/12/18 05:10:00,20.5,-3.9
2023/12/18 05:20:00,20.5,-3.8
2023/12/18 05:30:00,20.4,-4.0
2023/12/18 05:40:00,20.3,-4.0
2023/12/18 05:50:00,20.4,-3.6
2023/12/18 06:00:00,20.5,-3.4
2023/12/18 06:10:00,20.6,-3.9
2023/12/18 06:20:00,20.8,-3.6
2023/12/18 06:30:00,20.9,-3.4
2023/12/18 06:40:00,21.0,-3.5
2023/12/18 06:50:00,21.1,-3.5
2023/12/18 07:00:00,21.2,-3.4
2023/12/18 07:10:00,21.3,-3.5
2023/12/18 07:20:00,21.5,-3.6
2023/12/18 07:30:00,21.4,-3.3
2023/12/18 07:40:00,21.4,-2.9
2023/12/18 07:50:00,21.3,-2.8
2023/12/18 08:00:00,21.2,-3.0
2023/12/18 08:10:00,21.3,-3.2
2023/12/18 08:20:00,21.3,-3.1
2023/12/18 08:30:00,21.4,-2.9
2023/12/18 08:40:00,21.3,-2.7
2023/12/18 08:50:00,21.1,-2.3
2023/12/18 09:00:00,21.0,-2.4
2023/12/18 09:10:00,21.1,-2.0
2023/12/18 09:20:00,21.1,-2.1
2023/12/18 09:30:00,21.3,-2.1
2023/12/18 09:40:00,21.3,-2.1
2023/12/18 09:50:00,21.3,-2.2
2023/12/18 10:00:00,21.2,-2.0
2023/12/18 10:10:00,21.1,-1.3
2023/12/18 10:20:00,21.0,-0.7
2023/12/18 10:30:00,20.8,-0.7
2023/12/18 10:40:00,20.7,-0.6
2023/12/18 10:50:00,20.5,-1.0
2023/12/18 11:00:00,20.4,-0.9
2023/12/18 11:10:00,20.3,-0.6
2023/12/18 11:20:00,20.2,-0.7
2023/12/18 11:30:00,20.1,-0.9
2023/12/18 11:40:00,19.9,-1.1
2023/12/18 11:50:00,19.9,-0.9
2023/12/18 12:00:00,19.9,-0.9
2023/12/18 12:10:00,19.8,-0.6
2023/12/18 12:20:00,19.6, 0.1
2023/12/18 12:30:00,19.4,-0.7
2023/12/18 12:40:00,19.3,-0.7
2023/12/18 12:50:00,19.2,-0.6
2023/12/18 13:00:00,19.1,-0.5
2023/12/18 13:10:00,19.1,-0.6
2023/12/18 13:20:00,19.0, 0.1
2023/12/18 13:30:00,18.9, 0.2
2023/12/18 13:40:00,18.8, 0.1
2023/12/18 13:50:00,18.7,-0.2
2023/12/18 14:00:00,18.5,-0.7
2023/12/18 14:10:00,18.5,-0.5
2023/12/18 14:20:00,18.5,-0.4
2023/12/18 14:30:00,18.4,-0.7
2023/12/18 14:40:00,18.3,-0.6
2023/12/18 14:50:00,18.2,-0.6
2023/12/18 15:00:00,18.1,-0.6
2023/12/18 15:10:00,18.0,-0.6
2023/12/18 15:20:00,17.9,-0.7
2023/12/18 15:30:00,17.8,-0.7
2023/12/18 15:40:00,17.7,-1.0
2023/12/18 15:50:00,17.7,-1.1
2023/12/18 16:00:00,17.7,-1.1
2023/12/18 16:10:00,17.7,-1.1
2023/12/18 16:20:00,17.6,-1.3
2023/12/18 16:30:00,17.5,-1.3
2023/12/18 16:40:00,17.5,-1.3
2023/12/18 16:50:00,17.4,-1.6
2023/12/18 17:00:00,17.4,-1.6
2023/12/18 17:10:00,17.3,-1.7
2023/12/18 17:20:00,17.2,-1.5
2023/12/18 17:30:00,17.2,-1.5
2023/12/18 17:40:00,17.1,-1.8
2023/12/18 17:50:00,17.0,-1.7
2023/12/18 18:00:00,16.9,-1.6
2023/12/18 18:10:00,16.8,-1.6
2023/12/18 18:20:00,16.8,-1.6
2023/12/18 18:30:00,16.7,-1.6
2023/12/18 18:40:00,16.6,-1.6
2023/12/18 18:50:00,16.6,-1.7
2023/12/18 19:00:00,16.5,-1.7
2023/12/18 19:10:00,16.4,-1.7
2023/12/18 19:20:00,16.4,-1.7
2023/12/18 19:30:00,16.3,-1.6
2023/12/18 19:40:00,16.2,-1.7
2023/12/18 19:50:00,16.1,-1.7
2023/12/18 20:00:00,16.1,-1.6
2023/12/18 20:10:00,16.0,-1.8
2023/12/18 20:20:00,15.9,-1.9
2023/12/18 20:30:00,15.9,-1.9
2023/12/18 20:40:00,15.8,-1.8
2023/12/18 20:50:00,15.7,-1.9
2023/12/18 21:00:00,15.6,-1.8
2023/12/18 21:10:00,15.6,-1.9
2023/12/18 21:20:00,15.5,-1.9
2023/12/18 21:30:00,15.4,-2.0
2023/12/18 21:40:00,15.4,-1.9
2023/12/18 21:50:00,15.4,-2.0
2023/12/18 22:00:00,15.3,-2.2
2023/12/18 22:10:00,15.3,-2.2
2023/12/18 22:20:00,15.2,-2.2
2023/12/18 22:30:00,15.1,-2.1
2023/12/18 22:40:00,15.1,-2.2
2023/12/18 22:50:00,15.1,-2.3
2023/12/18 23:00:00,15.0,-2.1
2023/12/18 23:10:00,14.9,-2.4
2023/12/18 23:20:00,14.9,-2.3
2023/12/18 23:30:00,14.8,-2.2
2023/12/18 23:40:00,14.8,-2.0
2023/12/18 23:50:00,14.7,-1.9
